{"data":{"norad_id":64084,"epoch":"2026-05-24T23:59:04.779168Z","epoch_age_seconds":71001,"freshness":"FRESH","line1":"1 64084U 25107W   26144.99936087  .00017920  00000+0  65874-3 0  9996","line2":"2 64084  43.0011 130.3613 0000479 310.9891  49.0919 15.27599130 57771","mean_motion":15.2759913,"eccentricity":4.79e-5,"inclination_deg":43.0011,"raan_deg":130.3613,"arg_perigee_deg":310.9891,"mean_anomaly_deg":49.0919,"bstar":0.00065874,"rev_number":5777,"period_min":94.265568218804,"perigee_km":482.66316646524,"apogee_km":483.32046260567,"semimajor_km":6861.1288145355,"source":"CELESTRAK","updated_at":"2026-05-25T13:38:20.262383Z"}}